User: anonymous   Login
Location: Caltech
(34.1382°N, 118.1253°W)
Time: 11:09:53
(UTC-07:00)
Language:

SPOT 1/Viking Rocket - Orbit

View from above orbital plane
View from above orbital plane
View from above satellite
View from above satellite

Ground track
Ground track

The orbit data is extracted from the following two-line orbital elements,

1 16615U 86019C   18111.86920890  .00000014  00000-0  21583-4 0  9995
2 16615  98.5711 181.0171 0011261 210.8071 278.8432 14.31705698683668
Epoch (UTC): 21 April 2018 20:51:39
Eccentricity: 0.0011261
inclination: 98.5711°
perigee height: 778 km
apogee height: 794 km
right ascension of ascending node: 181.0171°
argument of perigee: 210.8071°
revolutions per day: 14.31705698
mean anomaly at epoch: 278.8432°
orbit number at epoch: 68366

The dashed part of the orbit path shows where the satellite is in the earth's shadow,  

DLR